FENGYUN 3H

Last updated on Wed Sep 23 2026 00:03:10 GMT+0000 (Coordinated Universal Time)

1 65815U 25219A 26265.42489413 .00000022 00000+0 30590-4 0 9994 2 65815 98.6826 204.3233 0001449 96.6463 263.4879 14.19933753 51184
UTC large
Height (km)
Speed (km/s)
/
Latitude / Longitude
Inclination (degrees)
Orbital Period (minutes)
Azimuth
Elevation
Range (km)
Doppler Factor

Next 0 passes for location: London (51.5072 / 0.1276)

No passes found over London.
FENGYUN 3H